Weather History for St. Augustine, FL

Change the Weather History Date:

Friday, January 18, 2013

  Actual Average Record
Temperature  
Mean Temperature 52 °F -  
Max Temperature 61 °F 62 °F 84 °F (1987)
Min Temperature 42 °F 44 °F 22 °F (1977)
Degree Days  
Heating Degree Days 14    
Growing Degree Days 2 (Base 50)    
Moisture  
Dew Point 44 °F    
Average Humidity 70    
Maximum Humidity 77    
Minimum Humidity 62    
Precipitation  
Precipitation 0.00 in - - ()
Sea Level Pressure  
Sea Level Pressure 30.31 in    
Wind  
Wind Speed 16 mph (North)    
Max Wind Speed 28 mph    
Max Gust Speed 34 mph    
Visibility 10 miles    
Events Rain    
Averages and records for this station are not official NWS values.
T = Trace of Precipitation, MM = Missing Value Source: NWS Daily Summary

Daily Weather History Graph

Daily Weather History Graph

Search for Another Location

Airport:

Trip Planner

Search our weather history database for the weather conditions in past years. The results will help you decide how hot, cold, wet, or windy it might be!

Date:

Astronomy

Jan. 18, 2013 Rise Set
Actual Time 7:21 AM EST 5:50 PM EST
Civil Twilight 6:55 AM EST 6:16 PM EST
Nautical Twilight 6:26 AM EST 6:45 PM EST
Astronomical Twilight 5:57 AM EST 7:14 PM EST
Moon 11:35 AM EST (1/18) 12:05 AM EST (1/18)
Length of Visible Light 11h 20m
Length of Day
10h 29m
Waxing Crescent, 47% of the Moon is Illuminated
Jan 18
Waxing Crescent
Jan 18
First Quarter
Jan 26
Full
Feb 3
Last Quarter
Feb 10
New

Hourly Weather History & Observations

Time (EST) Temp. Windchill Dew Point Humidity Pressure Visibility Wind Dir Wind Speed Gust Speed Precip Events Conditions
12:58 AM 43.0 °F 37.2 °F 33.1 °F 68% 30.18 in 10.0 mi NW 10.4 mph 18.4 mph N/A   Clear
1:58 AM 42.1 °F 36.6 °F 34.0 °F 73% 30.19 in 10.0 mi NW 9.2 mph - N/A   Clear
2:58 AM 42.1 °F 35.7 °F 33.1 °F 70% 30.21 in 10.0 mi NW 11.5 mph - N/A   Clear
3:12 AM 42.8 °F 36.2 °F 33.8 °F 70% 30.20 in 10.0 mi NNW 12.7 mph - N/A   Mostly Cloudy
3:47 AM 42.8 °F 37.0 °F 33.8 °F 70% 30.21 in 10.0 mi NNW 10.4 mph - N/A   Scattered Clouds
3:56 AM 42.8 °F 38.0 °F 33.8 °F 70% 30.21 in 10.0 mi NNW 8.1 mph - N/A   Mostly Cloudy
3:58 AM 42.1 °F 37.1 °F 34.0 °F 73% 30.22 in 10.0 mi NNW 8.1 mph - N/A   Mostly Cloudy
4:58 AM 44.1 °F 38.1 °F 36.0 °F 73% 30.22 in 10.0 mi NNW 11.5 mph - N/A   Overcast
5:58 AM 45.0 °F 39.7 °F 37.0 °F 74% 30.25 in 10.0 mi NNW 10.4 mph - N/A   Overcast
6:58 AM 46.0 °F 40.2 °F 39.0 °F 76% 30.27 in 10.0 mi NNW 12.7 mph - 0.00 in Rain Light Rain
7:58 AM 55.0 °F - 46.0 °F 72% 30.29 in 7.0 mi NNE 23.0 mph 34.5 mph 0.00 in   Overcast
8:58 AM 55.9 °F - 46.9 °F 72% 30.32 in 7.0 mi NNE 23.0 mph 33.4 mph N/A   Overcast
9:45 AM 57.2 °F - 46.4 °F 67% 30.34 in 7.0 mi NNE 23.0 mph 32.2 mph N/A   Overcast
9:58 AM 57.0 °F - 46.9 °F 69% 30.35 in 7.0 mi NNE 23.0 mph 32.2 mph N/A   Overcast
10:58 AM 57.9 °F - 48.0 °F 70% 30.36 in 7.0 mi NNE 24.2 mph 33.4 mph N/A   Overcast
11:58 AM 60.1 °F - 48.0 °F 64% 30.35 in 10.0 mi NNE 24.2 mph 33.4 mph N/A   Overcast
12:58 PM 61.0 °F - 48.0 °F 62% 30.34 in 10.0 mi NNE 27.6 mph 33.4 mph N/A   Mostly Cloudy
1:58 PM 57.9 °F - 48.0 °F 70% 30.34 in 10.0 mi NNE 24.2 mph 33.4 mph N/A   Overcast
2:43 PM 59.0 °F - 48.2 °F 67% 30.34 in 10.0 mi NNE 24.2 mph 33.4 mph N/A   Mostly Cloudy
2:48 PM 59.0 °F - 48.2 °F 67% 30.34 in 10.0 mi North 25.3 mph 33.4 mph N/A   Mostly Cloudy
2:58 PM 59.0 °F - 48.0 °F 67% 30.34 in 10.0 mi North 23.0 mph 32.2 mph N/A   Mostly Cloudy
3:58 PM 59.0 °F - 46.9 °F 64% 30.35 in 10.0 mi NNE 27.6 mph 34.5 mph N/A   Scattered Clouds
4:58 PM 57.9 °F - 46.9 °F 67% 30.37 in 10.0 mi NNE 21.9 mph 32.2 mph N/A   Mostly Cloudy
5:58 PM 57.0 °F - 46.0 °F 67% 30.38 in 10.0 mi NNE 24.2 mph 29.9 mph N/A   Overcast
6:58 PM 57.0 °F - 46.9 °F 69% 30.38 in 10.0 mi NNE 23.0 mph 31.1 mph N/A   Mostly Cloudy
7:58 PM 57.0 °F - 48.9 °F 74% 30.38 in 10.0 mi NNE 25.3 mph 33.4 mph N/A   Overcast
8:58 PM 57.9 °F - 48.9 °F 72% 30.38 in 10.0 mi NNE 24.2 mph 31.1 mph N/A   Overcast
9:58 PM 57.0 °F - 50.0 °F 77% 30.37 in 10.0 mi North 18.4 mph 24.2 mph N/A   Clear
10:58 PM 57.9 °F - 50.0 °F 75% 30.35 in 10.0 mi NNE 19.6 mph 31.1 mph N/A   Overcast
11:58 PM 59.0 °F - 51.1 °F 75% 30.34 in 10.0 mi North 18.4 mph - N/A   Overcast